Change the Weather History Date:

Wednesday, June 11, 2014

  Actual Average Record
Temperature  
Mean Temperature 71 °F 72 °F  
Max Temperature 81 °F 83 °F 100 °F (1953)
Min Temperature 60 °F 61 °F 45 °F (1988)
Cooling Degree Days 6 7  
Month to date cooling degree days 76 66  
Year to date cooling degree days 224 179  
Since 1 June cooling degree days 76 66  
Growing Degree Days 20 (Base 50)    
Moisture  
Dew Point 62 °F    
Average Humidity 76    
Maximum Humidity 100    
Minimum Humidity 51    
Precipitation  
Precipitation 0.00 in 0.17 in 1.19 in (2003)
Month to date precipitation 2.63 1.96  
Year to date precipitation 17.15 22.17  
Sea Level Pressure  
Sea Level Pressure 29.83 in    
Wind  
Wind Speed 4 mph (NW)    
Max Wind Speed 13 mph    
Max Gust Speed 30 mph    
Visibility 10 miles    
Events      
T = Trace of Precipitation, MM = Missing Value Source: NWS Daily Summary

Daily Weather History Graph

Daily Weather History Graph

Search for Another Location

Airport or City:

Trip Planner

Search our weather history database for the weather conditions in past years. The results will help you decide how hot, cold, wet, or windy it might be!

Date:

Astronomy

Jun. 11, 2014 Rise Set
Actual Time 5:59 AM CDT 8:33 PM CDT
Civil Twilight 5:29 AM CDT 9:03 PM CDT
Nautical Twilight 4:51 AM CDT 9:41 PM CDT
Astronomical Twilight 4:10 AM CDT 10:22 PM CDT
Moon 7:07 PM CDT (6/11) 4:46 AM CDT (6/11)
Length of Visible Light 15h 34m
Length of Day
14h 34m
Waxing Gibbous, 97% of the Moon is Illuminated
Jun 11
Waxing Gibbous
Jun 12
Full
Jun 19
Last Quarter
Jun 27
New
Jul 5
First Quarter

Hourly Weather History & Observations

Time (CDT) Temp. Heat Index Dew Point Humidity Pressure Visibility Wind Dir Wind Speed Gust Speed Precip Events Conditions
12:53 AM 62.1 °F - 61.0 °F 96% 29.81 in 8.0 mi Calm Calm - N/A   Overcast
1:07 AM 62.6 °F - 60.8 °F 94% 29.83 in 8.0 mi Calm Calm - N/A   Overcast
1:53 AM 62.1 °F - 61.0 °F 96% 29.80 in 8.0 mi Calm Calm - N/A   Overcast
2:53 AM 62.1 °F - 61.0 °F 96% 29.79 in 10.0 mi WNW 4.6 mph - N/A   Overcast
3:53 AM 62.1 °F - 61.0 °F 96% 29.79 in 10.0 mi Variable 4.6 mph - N/A   Overcast
4:20 AM 60.8 °F - 60.8 °F 100% 29.83 in 10.0 mi WNW 4.6 mph - N/A   Mostly Cloudy
4:37 AM 60.8 °F - 60.8 °F 100% 29.83 in 10.0 mi NW 5.8 mph - N/A   Mostly Cloudy
4:53 AM 60.1 °F - 60.1 °F 100% 29.81 in 9.0 mi NNW 5.8 mph - N/A   Mostly Cloudy
5:31 AM 60.8 °F - 60.8 °F 100% 29.84 in 8.0 mi NW 3.5 mph - N/A   Overcast
5:53 AM 61.0 °F - 61.0 °F 100% 29.83 in 9.0 mi NW 3.5 mph - N/A   Overcast
6:23 AM 60.8 °F - 60.8 °F 100% 29.86 in 8.0 mi Variable 5.8 mph - N/A   Overcast
6:53 AM 61.0 °F - 60.1 °F 97% 29.84 in 9.0 mi WNW 3.5 mph - N/A   Overcast
7:53 AM 63.0 °F - 61.0 °F 93% 29.86 in 10.0 mi Variable 5.8 mph 29.9 mph N/A   Overcast
8:53 AM 64.0 °F - 60.1 °F 87% 29.88 in 10.0 mi WNW 8.1 mph - N/A   Overcast
9:53 AM 64.0 °F - 60.1 °F 87% 29.88 in 10.0 mi WNW 9.2 mph - N/A   Overcast
10:22 AM 66.2 °F - 60.8 °F 83% 29.90 in 10.0 mi North 6.9 mph - N/A   Overcast
10:53 AM 69.1 °F - 62.1 °F 78% 29.88 in 10.0 mi NNW 9.2 mph - N/A   Scattered Clouds
11:53 AM 71.1 °F - 61.0 °F 70% 29.87 in 10.0 mi NW 6.9 mph - N/A   Partly Cloudy
12:53 PM 75.0 °F - 64.0 °F 69% 29.86 in 10.0 mi Variable 5.8 mph - N/A   Partly Cloudy
1:53 PM 75.9 °F - 63.0 °F 64% 29.86 in 10.0 mi Variable 5.8 mph - N/A   Clear
2:53 PM 79.0 °F - 62.1 °F 56% 29.84 in 10.0 mi NNW 8.1 mph - N/A   Clear
3:53 PM 79.0 °F - 60.1 °F 52% 29.83 in 10.0 mi NW 4.6 mph - N/A   Clear
4:53 PM 81.0 °F 81.6 °F 60.1 °F 49% 29.81 in 10.0 mi Calm Calm - N/A   Clear
5:53 PM 79.0 °F - 61.0 °F 54% 29.81 in 10.0 mi WSW 3.5 mph - N/A   Clear
6:53 PM 78.1 °F - 61.0 °F 56% 29.79 in 10.0 mi WSW 3.5 mph - N/A   Clear
7:53 PM 75.9 °F - 66.9 °F 74% 29.79 in 10.0 mi Calm Calm - N/A   Clear
8:53 PM 66.9 °F - 64.9 °F 93% 29.81 in 10.0 mi Calm Calm - N/A   Clear
9:53 PM 64.9 °F - 64.9 °F 100% 29.82 in 10.0 mi Calm Calm - N/A   Clear
10:53 PM 64.0 °F - 64.0 °F 100% 29.81 in 10.0 mi South 5.8 mph - N/A   Clear
11:53 PM 63.0 °F - 63.0 °F 100% 29.83 in 10.0 mi Calm Calm - N/A   Clear